Location: Wells
(51.2093°N, 2.6446°W)
Time: 07:50:50
(UTC+01:00)

SO-50 - Pass Details

Date: 19 March 2026
Orbit: 567 x 673 km, 64.6° (Epoch: 17 April)

Event Time Altitude Azimuth Distance (km) Brightness Sun altitude
Rises 19:27:37 0° 265° (W) 2,972 ? -11.0°
Reaches altitude 10° 19:30:15 10° 278° (W) 2,078 ? -11.4°
Maximum altitude 19:34:12 25° 335° (NNW) 1,332 ? -12.0°
Drops below altitude 10° 19:38:12 10° 31° (NNE) 2,112 ? -12.6°
Sets 19:40:55 0° 44° (NE) 3,032 ? -13.0°
